Home   Weather   Perchtoldsdorf   Past weeks

Flag for Austria Past Weather in Perchtoldsdorf, Lower Austria, Austria — Yesterday and Last 2 Weeks

Now
69 °F

Overcast.


Feels Like: 69 °F
Forecast: 50 / 66 °F
Wind: 2 mph from South

Location: Wien / Hohe Warte

Current Time: Oct 1, 2016 at 12:36:04 PM

Latest Report: Oct 1, 2016 at 12:00 PM


Visibility: 10 mi

Pressure: 29.94 "Hg

Humidity: 65%

Dew Point: 56 °F

Location of PerchtoldsdorfLocation

Past Weather in Perchtoldsdorf — Graph

°F

Perchtoldsdorf Temperature Yesterday

Maximum temperature yesterday: 81 °F (at 3:00 PM)
Minimum temperature yesterday: 53 °F (at 6:00 AM)
Average temperature yesterday: 66 °F

High & Low Weather Summary for the Past Weeks

 TemperatureHumidityPressure
High81 °F (Sep 29, 3:00 PM)95% (Sep 28, 6:00 AM)30.38 "Hg (Sep 28, 6:00 AM)
Low44 °F (Sep 23, 7:00 AM)28% (Sep 29, 3:00 PM)29.75 "Hg (Sep 17, 6:00 AM)
Average61 °F68%30.10 "Hg
* Reported Sep 16 11:00 AM — Oct 1 11:00 AM, Perchtoldsdorf, Weather by CustomWeather, © 2016

Note: Actual official high and low records may vary slightly from our data, if they occured in-between our weather recording intervals... More about our weather records

Advertising

Perchtoldsdorf Weather History for the Previous 24 Hours

Scroll right to see more
 ConditionsComfort  
Time TempWeatherWind HumidityBarometerVisibility
11:00 AM
Sat, Oct 1
67 °FPartly sunny.2 mph70%29.95 "Hg10 mi
10:00 AM63 °FScattered clouds.2 mph75%29.96 "Hg11 mi
9:00 AM59 °FPassing clouds.1 mph84%29.96 "Hg7 mi
8:00 AM56 °FScattered clouds.1 mph90%29.95 "Hg5 mi
7:00 AM54 °FScattered clouds.2 mph91%29.95 "Hg6 mi
6:00 AM54 °FPassing clouds.2 mph92%29.96 "Hg7 mi
5:00 AM54 °FCool.1 mph91%29.96 "HgN/A
4:00 AM55 °FCool.2 mph90%29.96 "HgN/A
3:00 AM56 °FCool.1 mph88%29.97 "HgN/A
2:00 AM57 °FClear.1 mph86%29.97 "Hg10 mi
1:00 AM58 °FCool.No wind84%29.97 "HgN/A
12:00 AM59 °FCool.No wind81%29.97 "HgN/A
11:00 PM
Fri, Sep 30
61 °FCool.1 mph77%29.98 "HgN/A
10:00 PM63 °FPassing clouds.1 mph72%29.98 "Hg10 mi
9:00 PM66 °FPassing clouds.2 mph65%29.98 "Hg7 mi
8:00 PM69 °FPassing clouds.1 mph58%29.97 "Hg10 mi
7:00 PM72 °FPassing clouds.2 mph51%29.96 "Hg10 mi
6:00 PM75 °FPartly sunny.5 mph46%29.96 "Hg31 mi
5:00 PM77 °FWarm.3 mph43%29.96 "HgN/A
4:00 PM80 °FPartly sunny.1 mph32%29.96 "Hg31 mi
3:00 PM81 °FPassing clouds.3 mph33%29.98 "Hg31 mi
2:00 PM80 °FPassing clouds.5 mph33%30.01 "Hg19 mi
1:00 PM79 °FPleasantly warm.3 mph37%30.02 "HgN/A
12:00 PM75 °FMild.2 mph48%30.04 "HgN/A
Weather by CustomWeather, © 2016

See weather overviewHow to use our weather pages